Content
SEND FEEDBACK

Daily
Averages
Monthly
Summary
Mauritania

PORT-ETIENNE, MAURITANIA


Home > Africa > Mauritania
Elevation: 10 feet     Latitude: 20 54N     Longitude: 017 06W

WEATHER
 
SELECT A DAY
Number of Records: 120,261;   Date Range: 7/1/96 - 9/28/14
 
SHARE

PRINT THIS DATA

[ ← Previous Day ]
WEATHER ALMANAC - FEBRUARY 19, 2013
[ Next Day → ]
[ °C ]   °F
Weather ElementAverageHighLow
Temperature66.1 °F73.4 °F (1:00 pm)60.8 °F (7:00 am)
Dewpoint57.2 °F61 °F (9:00 am)51.8 °F (4:00 pm)
Humidity72.9 %97 % (6:00 am)47 % (4:00 pm)
Barometer30.00 in30.06 in (12:00 pm)29.95 in (2:00 am)
Wind Speed16.1 mph21.9 mph (12:00 pm)
Weather ElementAverage
Visibility4.9 mi
Wind DirectionWNW (284.6 °)

Weather ElementTotal
Precipitation---
Cooling Degree Days2.1 (Base 65)
Growing Degree Days17.1 (Base 50)
Averaged from 28 records on February 19, 2013
WEATHER CONDITIONS BREAKOUT
WIND DIRECTION BREAKOUT
WEATHER BY HOUR - FEBRUARY 19, 2013
[ °C ]   °F
Local TimeTemperatureDewpointHumidityBarometerVisibilityWind DirectionWind SpeedGust SpeedPrecipitationEventsConditions
12:00 AM62.6 °F59.0 °F88 %29.98 in5.0 miNorth (360°)13.8 mph
1:00 AM62.6 °F59.0 °F88 %29.98 in5.0 miNorth (360°)16.1 mph
2:00 AM62.6 °F59.0 °F88 %29.95 in5.0 miNorth (360°)15.0 mph
3:00 AM64.0 °F58.0 °F77 %29.96 in5.0 miNorth (350°)5.8 mph
3:00 AM62.6 °F59.0 °F88 %29.95 in5.0 miNorth (360°)15.0 mph
6:00 AM61.0 °F60.0 °F97 %29.97 in5.0 miNNW (340°)12.7 mphPartly Cloudy
7:00 AM60.8 °F59.0 °F94 %29.98 in5.0 miENE (60°)11.5 mphScattered Clouds
8:00 AM60.8 °F57.2 °F88 %29.98 in5.0 miNNE (20°)9.2 mphScattered Clouds
9:00 AM62.0 °F61.0 °F97 %30.03 in5.0 miNorth10.4 mphPartly Cloudy
9:00 AM62.6 °F59.0 °F88 %30.01 in5.0 miNorth (360°)11.5 mphScattered Clouds
10:00 AM66.2 °F59.0 °F78 %30.04 in5.0 miNorth (360°)11.5 mphScattered Clouds
11:00 AM68.0 °F57.2 °F68 %30.04 in5.0 miNorth (350°)20.7 mphScattered Clouds
12:00 PM71.0 °F58.0 °F54 %30.06 in5.0 miNorth (10°)21.9 mphPartly Cloudy
12:00 PM71.6 °F57.2 °F60 %30.04 in5.0 miESE (120°)21.9 mphScattered Clouds
1:00 PM73.4 °F55.4 °F53 %30.01 in5.0 miSSE (150°)20.7 mphScattered Clouds
2:00 PM71.6 °F57.2 °F60 %30.01 in5.0 miNNW (340°)16.1 mph
3:00 PM72.0 °F59.0 °F54 %29.99 in5.0 miNW (320°)16.1 mph
3:00 PM71.6 °F57.2 °F60 %29.98 in5.0 miNNW (330°)17.3 mph
4:00 PM73.4 °F51.8 °F47 %29.95 in3.7 miNNW (340°)18.4 mphLow Drifting Sand
5:00 PM69.8 °F55.4 °F60 %29.95 in3.7 miNNW (330°)19.6 mphLow Drifting Sand
6:00 PM68.0 °F55.4 °F64 %29.95 in5.0 miNNW (330°)18.4 mph
6:00 PM68.0 °F57.0 °F59 %29.98 in5.0 miNW (320°)20.7 mph
7:00 PM66.2 °F55.4 °F68 %29.98 in5.0 miNNW (340°)18.4 mph
8:00 PM64.4 °F55.4 °F73 %29.98 in5.0 miNNW (340°)17.3 mph
9:00 PM64.0 °F57.0 °F73 %30.03 in5.0 miNorth (350°)17.3 mph
9:00 PM64.4 °F55.4 °F73 %30.01 in5.0 miNorth (350°)18.4 mph
10:00 PM62.6 °F55.4 °F77 %30.04 in5.0 miNorth (360°)18.4 mph
11:00 PM62.6 °F51.8 °F68 %30.04 in5.0 miNorth (360°)17.3 mph
Hourly data recorded from GQPP, located miles away from Port-Etienne, Mauritania







STORIES FROM OUR PARTNERS